OpenBCM V2.0.2 (Linux)

Packet Radio Mailbox

IZ3LSV

[San Dona' di P. JN]

 Login: GUEST





  
CX2SA  > KEPS     12.07.13 04:15l 94 Lines 2398 Bytes #999 (0) @ WW
BID : ORB13192.O
Read: GUEST
Subj: Orbital Elements  13192.OSCAR
Path: IZ3LSV<IQ5KG<IK1NHL<CX2SA
Sent: 130712/0208Z @:CX2SA.SAL.URY.SA #:8466 [Salto] FBB7.00e $:ORB13192.O
From: CX2SA@CX2SA.SAL.URY.SA
To  : KEPS@AMSAT


HR AMSAT ORBITAL ELEMENTS FOR OSCAR SATELLITES
FROM WA5QGD FORT WORTH,TX July 11, 2013
BID: ORB13192.O
TO ALL RADIO AMATEURS BT

Satellite: AO-07
Catalog number: 07530
Epoch time:      13192.04585311
Element set:     725
Inclination:      101.4323 deg
RA of node:       180.6865 deg
Eccentricity:    0.0011441
Arg of perigee:   240.4438 deg
Mean anomaly:     162.1875 deg
Mean motion:   12.53596926 rev/day
Decay rate:       -2.4e-07 rev/day^2
Epoch rev:           76877
Checksum:              294

Satellite: FO-29
Catalog number: 24278
Epoch time:      13191.81261819
Element set:     151
Inclination:      098.5537 deg
RA of node:       247.2164 deg
Eccentricity:    0.0351622
Arg of perigee:   102.9654 deg
Mean anomaly:     008.0755 deg
Mean motion:   13.53003567 rev/day
Decay rate:       -3.0e-07 rev/day^2
Epoch rev:           83450
Checksum:              294

Satellite: SO-33
Catalog number: 25509
Epoch time:      13192.63978500
Element set:     536
Inclination:      031.4315 deg
RA of node:       289.1733 deg
Eccentricity:    0.0351007
Arg of perigee:   011.9979 deg
Mean anomaly:     089.9601 deg
Mean motion:   14.29097445 rev/day
Decay rate:        9.5e-07 rev/day^2
Epoch rev:           76839
Checksum:              333

Satellite: RS-22
Catalog number: 27939
Epoch time:      13192.77891430
Element set:     576
Inclination:      097.7986 deg
RA of node:       019.3425 deg
Eccentricity:    0.0014427
Arg of perigee:   106.9773 deg
Mean anomaly:     253.3030 deg
Mean motion:   14.64503589 rev/day
Decay rate:       5.25e-06 rev/day^2
Epoch rev:           52289
Checksum:              337

Satellite: VO-52
Catalog number: 28650
Epoch time:      13192.12359144
Element set:     470
Inclination:      097.5681 deg
RA of node:       209.4983 deg
Eccentricity:    0.0025753
Arg of perigee:   198.2489 deg
Mean anomaly:     202.4899 deg
Mean motion:   14.83971980 rev/day
Decay rate:       5.72e-06 rev/day^2
Epoch rev:           44263
Checksum:              345

Satellite: HO-68
Catalog number: 36122
Epoch time:      13192.75215355
Element set:     713
Inclination:      100.3043 deg
RA of node:       249.1822 deg
Eccentricity:    0.0007262
Arg of perigee:   300.0949 deg
Mean anomaly:     059.9444 deg
Mean motion:   13.16305317 rev/day
Decay rate:       -4.4e-07 rev/day^2
Epoch rev:           17164
Checksum:              273



Read previous mail | Read next mail


 01.05.2026 20:07:17lGo back Go up